Voltar ao catálogo

CONNECTA IOT-11

AtivoComunicaçõesSSO
NORAD 64557·PAYLOAD·🇹🇷 Turkey

Lançado Jun 23, 2025 de Vandenberg Space Force Base

Loading…

Próximas Passagens (próximas 24 horas)

TLE

AtualizadoSource: Space-Track

Época: Sep 14, 2026, 06:21 UTC

1 64557U 25135AF  26257.26464126  .00003766  00000-0  17219-3 0  9991
2 64557  97.4794  11.8406 0002473  55.4683 304.6786 15.21162942 68401

Acompanhe CONNECTA IOT-11 em tempo real com AllMySat

Download on the App Store